TimeEDT,TemperatureF,Dew PointF,Humidity,Sea Level PressureIn,VisibilityMPH,Wind Direction,Wind SpeedMPH,Gust SpeedMPH,PrecipitationIn,Events,Conditions,WindDirDegrees,DateUTC
12:54 AM,51.1,46.9,86,30.49,10.0,Calm,Calm,-,N/A,,Clear,0,2011-10-09 04:54:00
1:54 AM,50.0,46.9,89,30.49,10.0,Calm,Calm,-,N/A,,Clear,0,2011-10-09 05:54:00
2:54 AM,48.0,46.0,93,30.48,10.0,Calm,Calm,-,N/A,,Clear,0,2011-10-09 06:54:00
3:54 AM,48.0,46.0,93,30.46,10.0,Calm,Calm,-,N/A,,Clear,0,2011-10-09 07:54:00
4:54 AM,46.4,44.6,93,30.47,10.0,Calm,Calm,-,N/A,,Clear,0,2011-10-09 08:54:00
5:54 AM,46.0,44.1,93,30.47,10.0,Calm,Calm,-,N/A,,Clear,0,2011-10-09 09:54:00
6:54 AM,46.0,44.1,93,30.48,10.0,Calm,Calm,-,N/A,,Clear,0,2011-10-09 10:54:00
7:54 AM,46.9,45.0,93,30.50,10.0,Calm,Calm,-,N/A,,Clear,0,2011-10-09 11:54:00
8:54 AM,50.0,46.9,89,30.51,10.0,Calm,Calm,-,N/A,,Clear,0,2011-10-09 12:54:00
9:54 AM,57.0,50.0,77,30.52,10.0,Calm,Calm,-,N/A,,Clear,0,2011-10-09 13:54:00
10:54 AM,63.0,50.0,63,30.51,10.0,Calm,Calm,-,N/A,,Clear,0,2011-10-09 14:54:00
11:54 AM,66.9,48.9,52,30.49,10.0,Calm,Calm,-,N/A,,Clear,0,2011-10-09 15:54:00
12:54 PM,69.1,48.0,47,30.47,10.0,Calm,Calm,-,N/A,,Clear,0,2011-10-09 16:54:00
1:54 PM,73.0,46.9,39,30.44,10.0,North,3.5,-,N/A,,Clear,10,2011-10-09 17:54:00
2:54 PM,73.0,45.0,37,30.40,10.0,SE,5.8,-,N/A,,Clear,130,2011-10-09 18:54:00
3:54 PM,73.4,42.8,33,30.40,10.0,Variable,6.9,-,N/A,,Clear,0,2011-10-09 19:54:00
4:54 PM,73.0,43.0,34,30.38,10.0,SE,8.1,-,N/A,,Partly Cloudy,130,2011-10-09 20:54:00
5:54 PM,71.1,46.0,41,30.38,10.0,ESE,6.9,-,N/A,,Partly Cloudy,120,2011-10-09 21:54:00
6:54 PM,69.1,46.0,44,30.38,10.0,SE,3.5,-,N/A,,Partly Cloudy,130,2011-10-09 22:54:00
7:54 PM,66.9,46.9,49,30.38,10.0,NNE,3.5,-,N/A,,Partly Cloudy,30,2011-10-09 23:54:00
8:54 PM,62.1,48.9,62,30.39,10.0,Calm,Calm,-,N/A,,Clear,0,2011-10-10 00:54:00
9:54 PM,57.9,50.0,75,30.38,10.0,Calm,Calm,-,N/A,,Clear,0,2011-10-10 01:54:00
10:54 PM,57.9,50.0,75,30.38,10.0,Calm,Calm,-,N/A,,Clear,0,2011-10-10 02:54:00
11:54 PM,55.9,50.0,80,30.38,10.0,Calm,Calm,-,N/A,,Clear,0,2011-10-10 03:54:00